GFSNW_850_dewp_276.txt.gz
Dewpoint
-5 -4 -3 -1 -5 -5 -2 -1 1 5 5 7 6 6 2 0 -1 -8 -6 -4 -1 -3 -4 -4 -2 -1 -4 -3 -2 -3 -2 -3 -2 -5 -1 -3 0 -4 -5 -6 -6 -3 -5 -5
-6 -5 -3 -2 -3 -3 -1 -1 1 1 6 6 6 4 3 1 -2 -6 -4 -2 -1 -4 -3 -4 -1 -3 -4 -4 -4 -2 -1 -2 -0 -1 -3 -3 -1 1 -2 -1 -8 -6 -6 -7
-6 -6 -4 -2 -1 -5 -2 -1 1 0 5 4 5 6 4 2 -1 -5 -4 -1 -3 -2 -2 -2 -2 -2 -4 -5 -5 -4 -3 0 -2 -1 -3 -3 -3 1 -1 -5 -7 -9 -4 -7
-2 -5 -5 -2 -1 -5 -1 -1 1 2 4 6 5 5 3 2 2 -3 -5 -1 -3 -1 -1 -2 -2 -3 -3 -5 -5 -3 -4 -2 0 -1 -1 -2 -3 1 -1 -5 -7 -6 -9 -3
-2 -3 -5 -2 -1 -3 -2 -0 0 2 3 4 5 5 5 2 1 -1 -0 -0 -1 -2 -1 -2 -1 -3 -3 -4 -5 -5 -4 -2 -2 -4 -5 -3 -1 -1 -1 -3 -4 -2 -2 -2
-3 -3 -4 -2 -1 -3 -1 -2 -2 2 3 5 5 6 4 2 -0 -2 -3 -1 -1 -2 -3 -6 -5 -6 -6 -5 -4 -4 -4 -3 -3 -5 -4 -5 -4 -3 -0 -2 -2 -4 -2 -3
-2 -2 -3 -2 -2 -5 -4 -2 -1 -0 3 5 6 5 3 2 0 -0 -1 -2 -2 -3 -5 -7 -7 -7 -5 -6 -6 -7 -3 -3 -3 0 -3 -4 -5 -5 -4 -3 -3 -3 -3 -3
-2 -2 -2 -1 -2 -4 -7 -4 -2 1 4 5 5 4 2 1 -2 -2 -1 -2 -4 -6 -8 -4 -4 -3 -4 -4 -6 -4 -6 -2 -1 -1 -1 -3 -5 -3 -5 -5 -8 -4 -4 -3
-1 -3 -2 -1 -3 -3 -6 -5 -2 0 0 5 4 3 1 0 -1 0 -2 -3 -6 -7 -3 -2 -2 -1 -3 -1 -5 -7 -4 -3 -2 -0 -1 -2 -5 -9 -10 -11 -7 -11 -5 -4
-1 -2 -2 -1 -3 -3 -6 -4 -1 1 1 4 4 2 1 -3 -2 -1 -4 -5 -6 -7 -2 0 -0 -1 -3 -0 -2 -2 -1 -1 -3 -3 -2 -0 -3 -9 -13 -11 -8 -9 -9 -9
-1 -2 -1 -2 -3 -3 -5 -3 -2 -0 1 2 3 2 -2 -3 -4 -1 -5 -3 -3 -1 -1 0 -1 -2 -2 -2 -3 -2 -2 -1 -1 -1 -2 -3 -4 -9 -7 -7 -10 -11 -10 -10
-1 -2 -2 -2 -3 -3 -4 -1 -1 -0 1 3 3 1 -2 -4 -4 -4 -5 -4 -4 -4 0 -1 -1 -1 -2 -3 -1 -5 -3 -3 -1 -1 -1 -6 -6 -10 -10 -7 -11 -11 -11 -10
-1 -2 -2 -2 -3 -4 -6 -1 -0 0 1 1 5 3 -1 -4 -5 -4 -4 -4 -3 -3 -4 0 -1 -3 -3 -2 -2 -5 -6 -4 -2 -2 -5 -4 -4 -9 -7 -6 -8 -11 -11 -9
-2 -2 -1 -1 -1 -3 -3 -2 0 1 2 5 5 2 -1 -3 -4 -4 -4 -5 -4 -4 -1 -1 -1 -1 -4 -3 -3 -4 -5 -4 -3 -2 -3 -3 -6 -6 -8 -8 -8 -10 -9 -9
-2 -2 -2 -1 -2 -3 -2 -1 0 1 5 4 4 1 -0 -2 -4 -3 -4 -5 -4 -2 -3 -2 -2 -2 -2 -3 -3 -2 -5 -3 -3 -2 -6 -4 -5 -4 -7 -9 -9 -9 -9 -8
-2 -2 -0 -2 -2 -3 -1 -0 0 2 3 4 3 3 1 -3 -3 -2 -3 -4 -4 -3 -4 -5 -4 -4 -5 -3 -3 -6 -6 -9 -9 -8 -9 -8 -7 -8 -6 -3 -8 -9 -9 -8
-0 -1 -0 -3 -2 -1 0 2 4 4 4 3 3 2 3 -1 -1 -2 -2 -2 -2 -4 -5 -5 -4 -5 -6 -3 -2 -7 -7 -6 -8 -9 -9 -6 -6 -6 -8 -8 -6 -8 -9 -9
-0 -1 -2 -1 -1 -1 2 3 4 3 3 1 1 2 2 -0 -0 -0 -1 -2 -3 -4 -5 -5 -4 -5 -6 -4 -6 -8 -9 -9 -7 -7 -7 -7 -8 -6 -8 -9 -7 -7 -8 -9
1 -1 -1 -1 -0 2 2 5 4 3 2 2 0 2 3 -0 -1 -2 -3 -4 -3 -3 -4 -4 -5 -3 -2 -4 -6 -7 -9 -9 -10 -9 -8 -6 -7 -8 -9 -9 -10 -8 -8 -9
-1 -1 -0 0 2 3 4 5 4 3 3 -1 -0 -0 1 -1 -2 -1 -2 -3 -2 -2 -3 -4 -3 -2 -5 -6 -7 -7 -8 -9 -10 -11 -12 -7 -6 -8 -9 -10 -10 -11 -11 -9
-2 0 0 2 3 4 3 2 2 2 3 -0 -0 -0 -0 -2 -1 -1 -2 -1 -1 0 -1 -2 -2 -1 -3 -5 -5 -6 -7 -9 -11 -12 -13 -14 -8 -8 -9 -10 -10 -11 -10 -9
1 2 3 3 3 2 1 1 1 3 4 0 -0 -1 -2 -2 -3 -2 -1 -1 -2 -1 -2 -2 -2 -2 -6 -6 -7 -6 -5 -6 -9 -11 -10 -12 -13 -9 -10 -10 -10 -10 -10 -10
3 3 2 2 -1 2 3 3 3 2 1 -1 -1 -0 -2 -3 -3 -2 -2 -2 -2 -3 -3 -2 -3 -6 -7 -6 -7 -7 -6 -6 -6 -8 -10 -12 -13 -13 -12 -11 -11 -10 -10 -9
3 1 1 2 1 2 1 1 2 0 -0 -1 -1 -1 -1 -2 -2 -2 -3 -3 -3 -2 -2 -2 -3 -7 -10 -9 -6 -7 -8 -6 -6 -7 -10 -12 -12 -12 -12 -11 -11 -10 -8 -8
2 2 3 2 1 1 1 0 0 -0 -0 -1 -2 -2 -3 -2 -1 -2 -2 -2 -2 -2 -2 -3 -7 -7 -5 -6 -6 -6 -6 -7 -7 -7 -7 -10 -11 -11 -9 -9 -10 -9 -8 -7
1 1 1 1 1 0 1 1 0 -0 -1 -2 -4 -1 -2 -2 -1 -1 -2 -2 -2 -2 -3 -7 -3 -4 -5 -5 -5 -7 -7 -6 -7 -7 -8 -10 -11 -9 -9 -8 -7 -7 -7 -7
-0 0 1 0 1 1 1 1 0 -1 -2 -0 -2 -4 -5 -2 -1 -1 -2 -2 -3 -6 -7 -4 -3 -4 -4 -4 -4 -6 -9 -9 -7 -8 -8 -10 -9 -8 -8 -7 -6 -6 -6 -5

GFSNW_850_dewp_279.txt.gz
Dewpoint
-5 -3 -3 -4 -1 -5 -2 -1 -1 3 5 5 6 6 2 1 -1 -7 -6 -3 -2 -3 -4 -4 -3 -1 -4 -1 -2 -4 -3 -3 -1 -4 -0 -5 -4 -4 -5 -5 -13 -4 -8 -6
-6 -5 -3 -3 -2 -3 -3 -2 -2 3 5 4 5 5 3 0 -1 -5 -4 -3 -3 -5 -4 -4 -2 -2 -3 -3 -5 -3 -3 -3 -1 -1 -3 -4 -2 -1 -4 -9 -10 -4 -8 -8
-5 -6 -5 -3 -3 -1 -2 -2 -1 -1 2 4 4 6 5 2 -0 -3 -4 -2 -3 -3 -3 -2 -2 -2 -2 -4 -5 -5 -4 -2 -3 -3 -5 -2 -2 0 -1 -5 -7 -9 -8 -11
-2 -4 -5 -4 -2 -1 -2 -2 -1 2 2 4 5 5 4 3 2 -0 -3 -2 -3 -2 -1 -3 -2 -2 -3 -4 -2 -3 -4 0 -1 -2 -1 -4 -4 0 -1 -8 -9 -9 -12 -6
-3 -3 -2 -4 -3 -1 -2 -3 0 1 2 4 5 6 5 3 1 -0 -1 -1 -2 -3 -1 -3 -2 -2 -3 -4 -4 -4 -4 -3 -2 -2 -2 -1 -2 -1 -2 -4 -6 -5 -5 -4
-3 -3 -3 -2 -3 -0 -0 -3 -2 2 2 3 5 5 5 3 1 -0 -1 -1 -2 -4 -4 -5 -5 -7 -7 -6 -3 -3 -4 -3 -3 -4 -5 -5 -5 -3 -1 -3 -4 -5 -3 -4
-3 -3 -3 -3 -3 -1 -1 -3 -5 -0 2 3 4 4 5 4 1 -0 -1 -3 -2 -4 -6 -7 -7 -6 -5 -5 -5 -5 -3 -5 -3 -0 -4 -7 -8 -6 -3 -3 -4 -4 -4 -4
-2 -2 -3 -3 -2 -1 -1 -4 -6 -2 -1 2 3 3 4 4 2 0 -1 -3 -5 -7 -8 -3 -4 -3 -4 -5 -6 -5 -4 -3 -1 -0 -1 -5 -7 -4 -2 -2 -5 -4 -4 -5
-2 -1 -2 -3 -3 -2 -0 -4 -6 -2 -0 -0 2 4 3 4 4 1 -2 -3 -7 -7 -4 -3 -2 -1 -2 -2 -5 -5 -3 -4 -2 -0 -2 -4 -8 -7 -7 -9 -5 -10 -5 -5
-1 -1 -1 -2 -3 -2 -0 -3 -7 -4 0 -1 2 4 5 3 3 3 -4 -5 -5 -7 -2 -0 -1 -1 -2 -2 -3 -2 -1 -2 -3 -4 -4 -2 -5 -9 -12 -7 -7 -9 -9 -7
-1 -0 -1 -2 -3 -2 -0 -1 -4 -4 -2 -2 -1 3 4 2 2 0 -4 -3 -4 -2 -2 -1 -1 -1 -1 -2 -3 -2 -1 -1 -2 -1 -3 -3 -5 -9 -7 -6 -8 -10 -9 -8
-0 -0 -1 -2 -2 -2 -0 -1 -3 -2 -1 -2 0 3 4 2 1 -1 -5 -4 -5 -6 -0 -1 -1 -1 -2 -3 -1 -5 -2 -3 -1 -2 -2 -6 -5 -9 -11 -10 -9 -10 -11 -10
-0 -0 -1 -2 -2 -1 -0 -1 -2 -2 -1 -2 -2 2 4 2 1 -1 -5 -4 -5 -5 -5 -2 -1 -4 -3 -2 -3 -4 -6 -5 -4 -3 -6 -4 -6 -8 -10 -9 -9 -11 -11 -11
-1 -1 -0 -2 -3 -1 -0 -1 -1 -3 -1 0 -0 3 2 2 -1 -2 -4 -5 -5 -5 -3 -2 -1 -2 -4 -4 -5 -4 -5 -4 -2 -3 -4 -3 -4 -7 -9 -8 -7 -10 -11 -11
-1 -1 -0 -2 -3 0 -0 -1 -1 -3 -3 1 -1 2 3 -1 -2 -0 -2 -4 -5 -3 -3 -2 -2 -2 -2 -3 -3 -3 -5 -3 -3 -3 -7 -7 -6 -8 -7 -7 -7 -10 -11 -10
-1 -1 -1 -2 -1 -0 -0 -1 -1 -2 -4 1 3 4 -0 1 -3 -3 -4 -4 -5 -4 -4 -4 -4 -4 -4 -2 -2 -5 -7 -9 -10 -9 -10 -11 -10 -8 -6 -7 -8 -9 -9 -9
-0 -2 -1 -0 -0 -0 -1 -1 -3 -3 -0 1 1 4 2 1 0 0 0 -3 -3 -4 -5 -5 -4 -4 -5 -4 -3 -7 -7 -7 -8 -9 -10 -8 -8 -7 -8 -5 -7 -9 -9 -9
-1 0 0 0 0 0 -0 -2 0 -0 -1 1 1 2 3 2 2 0 -2 -3 -4 -4 -5 -4 -4 -4 -5 -3 -6 -8 -8 -9 -6 -7 -9 -10 -9 -8 -7 -8 -7 -4 -7 -9
0 0 -0 0 0 -0 -0 -2 1 0 -0 2 2 3 3 3 1 -1 -3 -4 -2 -3 -4 -5 -5 -3 -3 -4 -7 -7 -8 -8 -9 -7 -7 -9 -8 -8 -8 -7 -8 -8 -6 -9
-0 0 1 -0 -0 -0 -2 -1 -0 3 3 3 1 2 3 2 -1 -2 -2 -3 -2 -2 -3 -4 -3 -2 -6 -6 -6 -6 -7 -7 -9 -10 -6 -6 -7 -7 -7 -8 -9 -9 -9 -7
1 -0 -1 -0 -1 -1 -0 -0 0 2 3 1 0 1 1 0 -1 -1 -2 -2 -2 -0 -1 -2 -2 -1 -3 -5 -5 -5 -6 -7 -7 -9 -11 -10 -9 -7 -7 -8 -9 -9 -10 -9
-0 -2 1 -2 -1 -1 -0 1 0 2 3 1 0 -1 -1 -2 -3 -1 -2 -1 -2 0 -2 -2 -1 -2 -5 -6 -5 -5 -5 -5 -7 -10 -10 -11 -14 -12 -7 -8 -9 -10 -10 -11
-4 -0 -0 1 -1 1 2 3 3 3 0 -0 -1 -0 -2 -2 -3 -2 -2 -2 -1 -3 -2 -1 -2 -6 -7 -7 -6 -7 -7 -7 -5 -7 -11 -11 -13 -14 -9 -7 -9 -10 -10 -11
1 -0 1 1 2 2 1 1 2 0 -0 -1 -1 -0 -0 -2 -2 -2 -3 -3 -3 -2 -3 -2 -3 -7 -9 -6 -6 -8 -7 -7 -6 -6 -9 -9 -11 -13 -14 -11 -9 -10 -10 -11
2 2 3 2 1 1 1 1 -0 -0 -1 -1 -1 -2 -3 -1 -1 -3 -2 -2 -2 -2 -2 -3 -8 -9 -9 -8 -7 -7 -8 -8 -6 -6 -7 -9 -12 -13 -13 -12 -11 -11 -11 -10
2 2 1 1 0 -0 1 0 0 -1 -2 -2 -3 -2 -2 -2 -2 -1 -2 -2 -3 -3 -4 -8 -7 -9 -8 -9 -6 -7 -7 -8 -7 -6 -6 -10 -12 -12 -12 -12 -11 -10 -10 -10
1 -0 1 1 1 1 1 -0 -1 -2 -3 -0 -1 -3 -4 -2 -1 -1 -3 -2 -3 -6 -8 -7 -6 -8 -6 -7 -6 -8 -12 -10 -8 -7 -7 -8 -10 -11 -10 -10 -9 -9 -9 -8

GFSNW_850_dewp_282.txt.gz
Dewpoint
-5 -4 -3 -3 -2 -1 -3 -2 -5 2 3 3 4 5 3 0 -1 -7 -4 -3 -3 -3 -3 -3 -4 -2 -4 -1 -5 -7 -6 -3 -1 -5 -1 -4 -5 -3 -6 -6 -13 -6 -10 -6
-5 -5 -4 -3 -3 -0 -3 -3 -4 1 4 3 2 5 3 0 -1 -5 -4 -2 -4 -5 -4 -3 -2 -2 -2 -2 -5 -5 -5 -3 -1 -3 -5 -4 -3 -3 -7 -10 -11 -7 -9 -7
-5 -5 -6 -4 -3 -1 -2 -4 -5 -2 3 2 3 6 5 2 0 -3 -4 -2 -4 -4 -3 -2 -2 -2 -1 -4 -5 -7 -7 -3 -4 -4 -7 -2 -1 -1 -4 -5 -8 -9 -8 -12
-5 -5 -5 -6 -3 -1 -1 -3 -4 -1 -1 3 3 4 5 3 2 -0 -2 -4 -4 -3 -2 -3 -1 -1 -2 -4 -2 -4 -4 -2 -4 -5 -1 -4 -3 -0 -2 -7 -8 -10 -12 -8
-4 -4 -3 -5 -4 -2 -1 -3 -3 1 2 2 4 5 6 4 2 -0 -1 -2 -3 -4 -2 -3 -1 -2 -3 -3 -2 -4 -5 -1 -1 -0 -2 -3 -2 -2 -2 -4 -7 -7 -7 -7
-3 -3 -4 -4 -4 -1 -0 -3 -5 1 0 3 5 5 5 5 2 -0 -1 -2 -2 -4 -4 -5 -5 -6 -6 -4 -3 -3 -4 -2 -1 -1 -5 -4 -4 -3 -1 -3 -4 -8 -7 -7
-3 -3 -3 -3 -3 -2 -0 -3 -6 -1 1 3 4 5 4 4 3 1 -0 -1 -3 -4 -6 -7 -7 -6 -5 -5 -4 -5 -4 -5 -4 -1 -5 -8 -6 -7 -4 -4 -5 -6 -6 -6
-3 -3 -3 -3 -3 -2 -1 -2 -6 -4 -2 2 3 4 4 4 3 2 -1 -2 -4 -7 -8 -4 -4 -3 -5 -5 -5 -4 -6 -4 -1 -1 -2 -6 -8 -4 -2 -3 -5 -5 -6 -6
-2 -3 -3 -3 -2 -2 -1 -1 -4 -6 -1 -1 2 4 4 5 5 4 0 -2 -6 -6 -4 -3 -2 -2 -3 -2 -4 -3 -4 -4 -3 -1 -3 -5 -10 -8 -5 -6 -5 -8 -6 -6
-3 -3 -2 -3 -2 -2 -1 -1 -2 -5 -2 -5 -0 3 4 4 4 4 -3 -4 -5 -5 -2 0 -1 -1 -3 -2 -2 -2 -2 -2 -3 -5 -5 -4 -7 -9 -7 -7 -8 -11 -6 -6
-3 -3 -2 -2 -2 -2 -1 -1 -2 -5 -3 -5 -3 1 4 3 4 3 -2 -3 -3 -3 -2 -0 -1 -1 -1 -3 -4 -2 -1 -2 -2 -2 -3 -4 -7 -9 -7 -6 -9 -9 -10 -9
-2 -2 -2 -2 -2 -2 -1 -1 -1 -4 -3 -4 -7 -7 -2 2 3 2 -4 -3 -5 -5 -1 -2 -2 -1 -2 -2 -1 -4 -2 -3 -1 -3 -2 -6 -7 -10 -11 -10 -9 -10 -11 -10
-1 -1 -1 -1 -1 -2 -1 -1 -1 -2 -3 -3 -4 -8 -4 1 3 2 -2 -4 -6 -5 -5 -3 -1 -4 -3 -1 -2 -3 -5 -5 -4 -4 -6 -5 -8 -8 -10 -10 -10 -10 -12 -12
-0 -0 -0 -0 -1 -2 -1 -0 -1 -2 -2 -3 -5 -7 -10 -1 4 3 -1 -3 -5 -4 -5 -3 -1 -3 -5 -4 -5 -4 -5 -5 -4 -4 -5 -6 -6 -9 -9 -9 -9 -10 -11 -12
-0 0 -0 -0 -1 -1 -1 -1 -1 -1 -4 -1 -2 -4 -2 -1 3 2 -0 -2 -1 -3 -3 -2 -2 -2 -3 -3 -4 -4 -5 -4 -3 -3 -8 -9 -10 -10 -11 -9 -9 -9 -12 -11
-0 0 -0 0 -0 -1 -0 -1 -1 -1 -2 -2 0 1 -0 3 3 3 -1 -1 -3 -3 -4 -3 -3 -3 -4 -2 -2 -5 -8 -9 -11 -9 -11 -12 -10 -10 -12 -9 -9 -7 -10 -10
-1 0 0 0 -0 -1 -0 -1 -1 -1 -2 -1 0 1 3 2 1 -1 -1 -2 -1 -1 -3 -4 -4 -3 -4 -3 -3 -7 -7 -8 -9 -9 -10 -10 -10 -11 -11 -8 -8 -8 -9 -9
-0 0 -0 0 -0 -0 -0 -1 -3 -2 -2 -0 1 1 3 1 1 1 -1 -1 -3 -3 -4 -4 -4 -4 -4 -3 -5 -6 -7 -7 -8 -8 -8 -9 -10 -11 -9 -8 -6 -8 -8 -9
0 0 -0 0 -0 -0 -1 -0 -1 -1 -2 -1 1 2 3 3 2 1 -0 -1 -2 -3 -4 -4 -4 -3 -2 -4 -6 -6 -6 -7 -7 -8 -8 -8 -9 -10 -8 -8 -7 -6 -7 -9
0 0 0 -0 -0 -0 -1 -0 -1 -1 -1 -0 2 2 3 3 1 -0 -1 -2 -1 -1 -3 -4 -3 -3 -5 -5 -6 -6 -7 -7 -8 -8 -7 -6 -7 -9 -8 -8 -9 -8 -8 -6
0 0 -1 -0 -0 -0 -0 -2 -1 -1 1 1 -1 1 3 2 1 -1 -1 -1 -2 -0 -1 -2 -1 -1 -4 -5 -5 -5 -5 -6 -6 -7 -9 -10 -10 -8 -8 -8 -8 -9 -9 -9
-0 -1 -1 -1 -0 -0 -1 -1 -0 -0 2 2 0 -1 1 0 -1 -2 -2 -1 -1 0 -2 -2 -1 -2 -4 -5 -5 -5 -5 -5 -6 -6 -7 -9 -11 -9 -8 -8 -7 -8 -8 -9
-1 -1 -0 -1 -1 -1 -0 0 1 2 3 1 1 2 2 -0 1 -0 -1 -1 -1 -2 -2 -1 -1 -4 -5 -6 -5 -5 -5 -5 -5 -5 -6 -9 -9 -12 -10 -8 -7 -7 -8 -9
-2 -0 0 -0 -1 -0 1 -2 -2 1 1 1 1 1 2 1 -1 -1 -2 -2 -2 -1 -2 -1 -2 -5 -6 -6 -6 -6 -7 -8 -8 -5 -5 -8 -10 -10 -13 -14 -9 -7 -8 -9
-1 0 0 1 -0 0 0 -1 1 0 1 1 1 -1 -2 -1 -1 -2 -2 -1 -1 -1 -1 -2 -7 -8 -7 -7 -7 -9 -9 -9 -9 -7 -5 -7 -10 -11 -12 -14 -9 -7 -8 -9
1 0 1 1 1 1 1 1 0 0 -0 -0 -2 0 0 -1 -1 -1 -2 -1 -2 -3 -3 -7 -10 -9 -8 -7 -8 -9 -9 -9 -9 -6 -6 -9 -10 -11 -12 -13 -13 -10 -9 -10
0 -0 1 1 1 1 0 1 0 -0 -1 0 -1 2 3 -1 -2 -1 -3 -2 -3 -6 -7 -8 -11 -11 -10 -9 -8 -8 -10 -10 -9 -7 -6 -7 -9 -12 -12 -13 -12 -11 -11 -11

GFSNW_850_dewp_285.txt.gz
Dewpoint
-4 -4 -4 -4 -2 -2 0 -1 -1 -4 1 1 0 3 4 1 -1 -6 -3 -2 -2 -3 -2 -3 -3 -2 -3 -2 -6 -6 -6 -1 -1 -4 -1 -4 -4 1 1 3 -2 -5 -4 4
-4 -5 -5 -5 -2 -2 -0 -2 -3 -6 0 2 2 3 4 2 -1 -6 -3 -2 -3 -4 -2 -1 -2 -2 -0 -3 -5 -3 -3 -1 0 -3 -5 -3 -3 -2 -6 -6 -4 -2 -0 5
-4 -5 -5 -5 -2 -1 -0 -2 -2 -7 -0 2 2 3 5 5 0 -5 -3 -2 -4 -2 -2 -1 -0 -0 -0 -3 -4 -6 -7 -3 -1 -1 -6 -2 1 -2 -6 -2 0 -1 -1 -1
-5 -5 -5 -5 -4 -1 -1 -2 -3 -3 1 0 3 3 5 5 2 -0 -2 -4 -4 -2 -1 -2 -0 -1 -2 -1 -2 -5 -4 -2 -5 -6 -3 -3 -3 -2 -4 -3 -4 0 -2 -5
-4 -5 -5 -5 -5 -1 -0 -2 -4 -1 0 0 2 3 3 5 2 1 -0 -2 -3 -3 -1 -1 0 -1 -2 -2 -1 -4 -5 1 -1 0 -2 -4 -3 -2 -3 -5 -5 -5 -9 -6
-4 -5 -5 -5 -4 -2 -1 -1 -5 -0 -1 -1 2 3 3 4 2 0 -1 -2 -1 -3 -4 -5 -4 -5 -5 -3 -1 -2 -3 -1 -1 -3 -5 -3 -0 -1 -2 -3 -5 -6 -5 -1
-5 -4 -5 -4 -4 -3 -1 -1 -4 -2 -2 0 1 2 3 5 4 3 -0 -4 -2 -4 -6 -6 -6 -5 -4 -4 -3 -5 -3 -3 -3 -2 -6 -2 -4 -7 -3 -4 -5 -7 -8 -9
-4 -4 -4 -4 -4 -3 -1 -1 -2 -4 -1 -2 -1 1 3 3 4 3 2 -2 -5 -7 -8 -2 -3 -3 -3 -4 -3 -4 -5 -3 -1 -1 -4 -7 -7 -5 -3 -3 -6 -5 -7 -9
-4 -4 -3 -3 -4 -4 -1 -2 -1 -4 -4 -3 -1 1 4 5 5 5 3 -2 -6 -6 -3 -1 -1 -1 -2 -2 -3 -4 -5 -4 0 0 -3 -5 -8 -8 -4 -6 -2 -8 -6 -7
-3 -3 -3 -3 -3 -3 -2 -1 -1 -2 -3 -6 -4 2 4 5 4 5 3 -3 -5 -5 -1 1 0 -1 -3 -2 -2 -2 -2 -1 -0 -1 -0 -3 -6 -7 -6 -5 -3 -10 -6 -6
-2 -2 -3 -3 -3 -3 -2 -1 -3 -1 -2 -4 -4 -3 -0 2 4 4 1 -1 -3 -2 0 2 0 0 -0 -2 -3 -2 -1 0 0 -1 -1 -0 -8 -6 -5 -3 -10 -10 -6 -6
-1 -2 -2 -3 -3 -3 -2 -1 -1 -1 -2 -3 -4 -5 -5 -0 1 3 -0 2 -3 -5 1 -0 -1 -0 -1 -2 -0 -4 -1 -1 1 -1 1 -5 -8 -7 -9 -10 -9 -9 -11 -9
-1 -2 -2 -2 -3 -3 -2 -1 -1 -1 -1 -2 -3 -4 -8 -6 -1 -1 1 -1 -4 -5 -4 -2 -0 -2 -2 -0 -2 -3 -4 -5 -2 -3 -4 -5 -8 -10 -10 -10 -9 -10 -12 -12
-1 -1 -2 -2 -2 -2 -1 -1 -1 -2 -1 -2 -3 -6 -9 -10 -6 -2 3 1 -3 -4 -4 -3 -1 -2 -5 -2 -3 -3 -4 -4 -3 -3 -5 -6 -8 -9 -11 -10 -10 -10 -12 -13
-0 -1 -1 -1 -1 -1 -1 -1 -1 -3 -3 -3 -3 -5 -8 -11 -7 -1 3 2 1 -3 -3 -1 -1 -3 -3 -3 -4 -4 -5 -3 -2 -1 -8 -7 -11 -12 -12 -11 -10 -10 -13 -12
-1 -0 -1 -1 -1 -1 -0 -1 -1 -2 -2 -3 -1 -4 -3 -4 -3 -2 1 3 -0 -0 -3 -2 -3 -3 -4 -1 -2 -5 -9 -9 -9 -8 -10 -11 -12 -13 -12 -11 -11 -10 -11 -13
-2 -0 -0 -1 -1 -1 -1 -1 -1 -2 -1 -1 -2 -1 0 2 3 3 2 3 1 -0 -1 -3 -4 -3 -3 -2 -1 -5 -7 -7 -8 -9 -9 -10 -11 -12 -13 -14 -11 -10 -10 -11
-1 -1 -0 -1 -0 -0 -1 -1 -4 -2 -1 -1 -1 -0 2 2 2 2 1 -0 -1 -1 -2 -2 -3 -3 -3 -1 -4 -5 -5 -5 -6 -7 -8 -8 -9 -10 -11 -10 -9 -9 -8 -10
-0 -1 -0 -0 -0 -1 -1 -2 -1 -2 -2 -1 -0 1 3 2 2 2 0 1 0 -2 -2 -2 -2 -1 0 -2 -5 -5 -5 -5 -6 -6 -7 -7 -8 -9 -10 -9 -8 -8 -8 -9
-0 -0 0 -1 -1 -1 -1 -1 -1 -1 -2 -1 -0 -1 2 4 2 1 2 -0 1 2 -1 -4 -2 -1 -3 -3 -5 -5 -5 -6 -6 -7 -7 -7 -7 -7 -9 -9 -9 -9 -7 -8
0 0 -0 -1 -1 -1 -1 -2 -1 -1 -1 -1 -1 -1 2 3 2 1 1 1 -1 1 1 -0 -0 -1 -2 -3 -4 -5 -4 -4 -4 -5 -6 -8 -8 -8 -8 -9 -8 -9 -7 -7
-0 -0 -1 -1 -0 -1 -1 -1 -2 -1 -0 0 0 -1 -1 2 1 -0 -1 1 -1 2 -2 0 1 -1 -4 -4 -4 -4 -4 -4 -4 -4 -5 -6 -7 -10 -8 -8 -9 -9 -9 -9
-0 -1 -1 -1 -1 -0 -1 -0 -1 -1 0 2 -2 1 1 1 2 1 -0 0 1 -2 -0 1 -1 -3 -4 -4 -4 -4 -5 -4 -4 -4 -4 -5 -6 -8 -10 -9 -8 -8 -8 -8
-2 -1 -1 -0 -1 -2 -2 -4 -5 -3 2 1 -2 1 2 1 1 1 -0 -1 -1 1 1 0 -1 -4 -5 -5 -5 -5 -5 -5 -5 -5 -5 -5 -6 -7 -9 -11 -9 -8 -8 -8
-3 -2 -1 -1 -3 -2 -3 -6 -6 -4 -0 0 0 1 1 0 1 -1 -2 -0 1 1 1 0 -4 -5 -5 -6 -5 -5 -5 -5 -6 -7 -6 -5 -5 -7 -7 -12 -13 -9 -7 -7
-3 -1 -1 -1 0 -0 -1 -6 -6 -1 1 1 0 1 2 0 1 1 -0 -0 1 -0 -2 -5 -5 -6 -8 -7 -6 -6 -6 -6 -9 -10 -9 -5 -5 -7 -9 -10 -13 -12 -8 -7
-0 -0 1 -1 -3 0 1 -2 -5 -0 2 2 2 3 3 -0 0 -1 -1 -0 0 -4 -6 -5 -6 -6 -9 -7 -7 -9 -10 -10 -10 -8 -7 -6 -7 -10 -11 -11 -13 -12 -8 -7

GFSNW_850_dewp_288.txt.gz
Dewpoint
-4 -3 -3 -4 -3 -2 -2 -1 -0 -3 -0 0 1 1 3 4 1 -5 -5 -5 -4 -3 -3 -2 -2 -2 -3 -5 -7 -6 -4 -1 -1 -2 -3 -4 -3 5 6 8 7 3 5 10
-4 -4 -5 -5 -4 -2 -1 -1 -1 -2 -2 2 2 2 1 3 3 -4 -5 -4 -4 -4 -3 1 -3 -3 -0 -4 -6 -5 -4 1 2 -2 -3 -4 -2 -2 -1 2 6 5 8 12
-5 -4 -5 -6 -4 -2 -1 -1 0 -3 0 -1 1 1 3 5 3 2 -4 -3 -4 -3 -2 -3 -1 -1 -0 -4 -5 -6 -6 -3 2 -1 -3 -1 1 -3 -3 -2 9 7 6 9
-5 -4 -5 -5 -4 -3 -1 -1 -1 -3 -2 -3 0 2 3 5 4 1 -3 -4 -5 -3 1 -2 -1 -1 -1 -3 -4 -5 -5 2 -7 -6 -7 -6 -4 -4 -2 1 1 6 7 3
-5 -4 -5 -6 -5 -2 -1 -1 -2 -1 -3 -4 -2 2 1 3 4 2 -3 -3 -5 -4 1 -3 -1 -2 -2 -3 -4 -5 -4 -1 -4 -2 -3 -5 -5 -5 -5 -4 -3 1 -3 1
-4 -4 -5 -5 -5 -2 -1 -1 -2 -2 -4 -5 -5 1 1 2 4 2 -1 -3 -3 -2 -4 -3 -4 -4 -4 -4 -4 -3 -4 -1 -2 -3 -4 -3 1 1 -4 -5 -5 -4 -1 2
-4 -5 -5 -5 -5 -3 -2 -1 -1 -1 -1 -4 -5 -5 -0 2 3 4 0 -2 -3 -2 -3 -4 -3 -4 -3 -3 -3 -5 -2 -3 -4 -3 -4 3 -4 -8 -6 -5 -6 -6 -7 -7
-5 -5 -5 -6 -6 -4 -2 -1 -1 -1 -1 -4 -6 -7 -3 2 3 5 4 0 -2 -4 -5 -3 -3 -3 -3 -3 -4 -5 -5 -4 -2 -1 -4 -7 -11 -9 -6 -4 -6 -7 -7 -9
-4 -5 -5 -5 -5 -5 -3 -3 -1 -1 -0 -4 -6 -5 -4 3 4 4 5 2 -3 -2 -4 -2 -1 -1 -3 -2 -3 -6 -5 -5 -2 -2 -4 -6 -8 -9 -7 -7 -5 -9 -9 -8
-3 -3 -4 -4 -5 -5 -3 -2 -2 -1 -1 -3 -4 -3 1 1 4 4 4 1 -2 -3 -1 2 0 0 -3 -1 -1 -3 -3 -3 4 1 4 -4 -10 -6 -6 -5 -3 -7 -8 -7
-3 -3 -3 -4 -4 -4 -3 -2 -2 -1 -1 -3 -3 -3 -2 -1 0 4 4 2 -1 -1 2 2 1 0 -1 -2 -3 -3 -2 -0 -0 -2 0 5 -9 -5 -6 -3 -5 -6 -5 -6
-2 -2 -2 -3 -4 -4 -3 -1 -2 -1 -1 -2 -2 -3 -2 -1 -1 -1 1 3 -0 1 4 2 -1 1 -1 -2 1 -4 -0 -1 1 -1 2 -3 -7 -5 -6 -6 -5 -6 -4 -4
-1 -1 -1 -3 -3 -4 -3 -2 -1 -2 -1 -1 -2 -3 -3 -2 -3 -0 0 4 3 -1 -2 1 0 1 -2 -0 -1 -3 -4 -5 -3 -3 -5 -5 -6 -7 -6 -6 -6 -7 -7 -5
-1 -1 -1 -2 -2 -3 -3 -2 -1 -1 -1 -2 -4 -3 -3 -4 -5 -4 1 1 1 0 -3 -1 -1 -1 -2 -1 -2 -3 -4 -5 -4 -4 -5 -6 -6 -6 -7 -7 -7 -8 -8 -6
-0 -0 -1 -1 -2 -2 -2 -2 -1 -3 -2 -1 -3 -3 -3 -3 -7 -7 -0 0 1 2 0 -1 -1 -3 -3 -4 -4 -3 -5 -4 -2 -0 -4 -5 -7 -7 -6 -6 -7 -8 -7 -8
-0 -1 -1 -2 -2 -2 -1 -1 -1 -1 -1 -0 -2 -2 -3 -0 0 -5 -2 1 1 3 0 -0 -1 -2 -2 -2 -2 -5 -5 -5 -5 -5 -5 -5 -6 -12 -12 -6 -7 -8 -7 -8
-0 -1 -1 -1 -2 -1 -1 -1 -1 -1 -1 -1 -2 -5 -3 2 2 1 -0 3 2 3 2 1 -1 -1 -2 -2 -1 -4 -5 -6 -6 -6 -6 -6 -7 -8 -9 -12 -7 -7 -7 -8
-1 -0 -1 -1 -1 -1 -1 -2 -3 -2 -1 -1 -1 -1 -0 2 3 3 3 3 3 2 1 1 0 -1 -1 1 -3 -3 -4 -4 -5 -5 -5 -5 -6 -7 -6 -11 -6 -7 -8 -7
-0 -0 -0 -1 -1 -1 -1 -3 -1 -1 -1 -2 -2 -2 1 2 2 2 1 1 3 1 1 0 0 1 2 -1 -2 -3 -4 -4 -4 -4 -4 -4 -5 -6 -6 -6 -6 -7 -7 -7
-0 -0 -0 -1 -1 -1 -1 -1 -1 -1 -1 -1 -2 -4 1 3 2 3 3 2 3 4 2 0 1 2 -1 -1 -1 -2 -2 -2 -3 -3 -3 -4 -4 -4 -5 -5 -7 -7 -7 -6
-0 -0 -1 -1 -1 -1 -1 -2 -1 -1 -0 -1 -3 -5 -1 2 3 2 3 2 2 5 3 2 2 2 1 -1 -1 -1 -2 -4 -4 -4 -4 -4 -6 -6 -5 -4 -6 -7 -5 -6
-1 -0 -1 -1 -0 -1 0 0 -1 -1 -2 -3 -4 -5 -4 -0 2 1 1 4 3 4 0 3 3 1 -2 -2 -1 -1 -1 -2 -4 -4 -4 -3 -4 -5 -8 -5 -7 -9 -8 -7
-0 -1 -1 -1 -1 1 1 0 -1 -0 -2 -3 -4 -4 -4 -2 1 2 2 4 5 -1 2 3 1 -1 -2 -2 -3 -3 -3 -2 -2 -3 -3 -3 -3 -4 -5 -9 -8 -9 -9 -9
-1 -1 -0 0 0 -0 -3 -5 -6 -6 -4 -3 -5 -3 -1 1 2 2 3 1 0 3 4 2 1 -2 -4 -4 -4 -2 -2 -3 -4 -4 -2 -2 -3 -4 -4 -5 -10 -9 -9 -9
-0 -0 -1 0 -3 -4 -5 -8 -7 -5 -4 -3 -2 -1 0 1 2 2 2 1 3 2 -0 2 -1 -4 -5 -5 -5 -4 -3 -3 -4 -3 -3 -4 -4 -4 -5 -6 -10 -9 -8 -8
-2 -3 -5 -5 -3 -1 -3 -5 -5 -4 -3 -3 -2 -0 2 2 2 3 3 2 3 2 0 -3 -4 -4 -5 -3 -4 -5 -5 -4 -4 -4 -5 -5 -5 -5 -5 -6 -8 -11 -9 -8
0 0 -5 -4 -5 -1 -3 -6 -5 -3 -1 1 -1 2 3 -0 2 3 1 1 2 0 0 -4 -3 -4 -1 -4 -7 -6 -5 -5 -5 -5 -6 -7 -7 -5 -5 -6 -10 -13 -10 -8